Location: Newark
(13.6797°N, 8.5297°E)
Time: 01:40:41
(UTC+00:00)

Altair - Pass Details

Date: 31 January 2020
Orbit: 1502 x 1682 km, 47.2° (Epoch: 25 February)

Event Time Altitude Azimuth Distance (km) Brightness Sun altitude
Rises 05:08:21 0° 239° (WSW) 4,745 9.7 -11.3°
Reaches altitude 10° 05:11:34 10° 245° (WSW) 3,786 9.1 -10.5°
Maximum altitude 05:20:42 46° 316° (NW) 2,074 7.9 -8.4°
Drops below altitude 10° 05:30:12 10° 27° (NNE) 3,911 9.8 -6.2°
Sets 05:33:37 0° 34° (NNE) 4,914 10.4 -5.4°
